Regional Weather Roundup
Issued by NWS Bismarck, ND

Home | Current Version | Previous Version | Text Only | Print | Product List | Glossary On
Versions: 1 2 3 4 5 6 7 8 9 10 11 12 13 14 15 16 17 18 19 20 21 22 23 24 25 26 27 28 29 30 31 32 33 34 35 36 37 38 39 40 41 42 43 44 45 46 47 48 49 50
000
ASUS43 KBIS 191810
RWRBIS

NWR BROADCAST TEXT
NATIONAL WEATHER SERVICE BISMARCK ND
100 PM CDT THU APR 19 2018

NOTE: "FAIR" INDICATES FEW OR NO CLOUDS BELOW 12,000 FEET WITH NO
SIGNIFICANT WEATHER AND/OR OBSTRUCTIONS TO VISIBILITY.


CITY           SKY/WX    TMP DP  RH WIND       PRES   REMARKS
WILLISTON      CLOUDY    47  36  65 SE10      30.37F
MINOT          CLOUDY    43  34  70 NW3       30.42F HAZE
MINOT AFB      CLOUDY    42  35  76 CALM      30.41S
BISMARCK       SUNNY     52  25  35 CALM      30.41F
DICKINSON      MOSUNNY   52  31  44 SE8       30.32F
GARRISON         N/A     41  34  76 CALM      30.41F
HETTINGER ARPT SUNNY     53  31  42 SE12      30.33F
JAMESTOWN      SUNNY     50  28  42 CALM      30.41F
CARRINGTON     FAIR      46  37  71 NW8G14    30.44F
HAZEN          MOCLDY    48  36  61 CALM      30.41F
LINTON           N/A    N/A N/A N/A VRB3G12   30.41F
MANDAN         FAIR      48  34  57 VRB5      30.40F
OAKES            N/A     50  32  50 W9        30.44F
RUGBY          CLOUDY    43  37  81 VRB5      30.41F
STANLEY          N/A     36  36 100 N3        30.42F FOG
TIOGA          CLOUDY    39  39 100 CALM      30.40F
WATFORD CITY   FAIR      48  37  66 SE7       30.36F
$$

CITY           SKY/WX    TMP DP  RH WIND       PRES   REMARKS
GRAND FORKS    FAIR      53  29  39 S5        30.41F
GRAND FORKS AF FAIR      56  28  34 W3        30.41S
DEVILS LAKE    FAIR      47  35  63 SW9       30.42S
FARGO          FAIR      52  29  41 W7        30.43S
CANDO          FAIR      50  34  53 W6        30.43S
CAVALIER         N/A     54  30  40 SE6       30.40S
GRAFTON        FAIR      55  25  30 SW5       30.43S
GWINNER          N/A     52  34  50 SW9       30.44S
LANGDON        FAIR      52  34  50 SW6       30.40F
ROLLA          FAIR      45  39  81 S9        30.40S
WALHALLA       FAIR      54  28  37 VRB6      30.40S
$$

CITY           SKY/WX    TMP DP  RH WIND       PRES   REMARKS
ABERDEEN       SUNNY     53  31  42 VRB6      30.44F
MOBRIDGE       SUNNY     52  26  36 S8        30.38F
BUFFALO          N/A     54  31  41 SE15G26   30.23S
RAPID CITY     MOSUNNY   53  30  41 S14G24    30.30F
GLASGOW        PTSUNNY   46  37  71 E20       30.27F
SIDNEY         SUNNY     50  39  66 E8        30.34F
WOLF POINT     PTSUNNY   45  38  76 E15       30.33F
GLENDIVE       SUNNY     52  37  56 VRB7      30.29F
MILES CITY     SUNNY     59  33  37 SE18G25   30.21F
BAKER          SUNNY     54  30  40 SE17      30.28F
$$

CITY           SKY/WX    TMP DP  RH WIND       PRES   REMARKS
BILLINGS       MOSUNNY   53  28  38 NE7       30.11F
GREAT FALLS    PTSUNNY   47  26  44 VRB3      30.13F
REGINA         MOSUNNY   36  34  93 SE13      30.38F
ESTEVAN        MOSUNNY   45  32  61 E6        30.40F
$$





USA.gov is the U.S. government's official web portal to all federal, state and local government web resources and services.